Meteo Giornale » Osservazioni meteo Svizzera » Payerne

ore: 10:20 - Osservazioni Meteo Payerne
Lat. 46° 49' N Lon. 6° 57' E Alt. 490 metri s.l.m.

molto_nuvoloso Europe/Zurich

-1 °C

Molto Nuvoloso

Temp. 24 Ore

-3 °C

4 °C

Est/Nord-Est

11.1 Km/h

Dew point -4 °C

Umidità 80 %

Visibilità  10 Km

Il sole sorge alle ore 07:45

Il sole tramonta alle ore 17:46

Data e Ora Cielo e Fenomeni T °C DP °C Um. % Pres. hPa Vis. km Vento km/h
Oggi h: 10:20 molto_nuvoloso Molto Nuvoloso -1 -4 80 1033 10 E/NE 11.1
Oggi h: 09:50 molto_nuvoloso Molto Nuvoloso -2 -4 86 1033 10 E/NE 11.1
Oggi h: 09:20 molto_nuvoloso Molto Nuvoloso -2 -5 79 1033 10 NE 11.1
Oggi h: 08:50 molto_nuvoloso Molto Nuvoloso -2 -4 86 1033 10 NE 9.3
Oggi h: 08:20 molto_nuvoloso Molto Nuvoloso -2 -5 79 1033 10 NE 9.3
Oggi h: 07:50 coperto Coperto -2 -5 79 1033 10 E/NE 13
Oggi h: 07:20 coperto Coperto -2 -5 79 1032 10 NE 13
Oggi h: 06:50 coperto Coperto -2 -5 79 1032 9 NE 13
Oggi h: 06:20 coperto Coperto -2 -4 86 1032 10 E/NE 9.3
Oggi h: 05:50 molto_nuvoloso Molto Nuvoloso -2 -4 86 1032 9 E/NE 11.1
Oggi h: 05:20 molto_nuvoloso Molto Nuvoloso -2 -4 86 1032 9 E/NE 9.3
Oggi h: 04:50 coperto Coperto -2 -4 86 1032 9 NE 9.3
Oggi h: 04:20 molto_nuvoloso Molto Nuvoloso -2 -4 86 1032 9 E/NE 13
Oggi h: 03:50 nuvoloso Nuvoloso -2 -4 86 1032 8 NE 9.3
Oggi h: 03:20 nuvoloso Nuvoloso -2 -4 86 1032 8 NE 14.8
Oggi h: 02:50 poco_nuvoloso Poco Nuvoloso -2 -5 79 1032 7 NE 11.1
Oggi h: 02:20 nuvoloso Nuvoloso -2 -4 86 1033 7 NE 14.8
Oggi h: 01:50 sereno Sereno -2 -4 86 1033 6 NE 11.1
Oggi h: 01:20 sereno Sereno -3 -4 92 1033 7 E/NE 9.3
Oggi h: 00:50 sereno Sereno -2 -4 86 1033 9 NE 16.7
Oggi h: 00:20 sereno Sereno -2 -4 86 1033 10 E/NE 14.8
Ieri h: 23:50 sereno Sereno -1 -4 80 1033 10 E/NE 16.7
Ieri h: 23:20 sereno Sereno -1 -4 80 1033 10 E/NE 14.8
Ieri h: 22:50 sereno Sereno -2 -5 79 1033 10 N 5.5
Ieri h: 22:20 sereno Sereno -2 -5 79 1033 10 N 5.5
Ieri h: 21:50 sereno Sereno -1 -5 74 1033 10 N/NE 7.4
Ieri h: 21:20 sereno Sereno -1 -4 80 1033 10 NE 9.3
Ieri h: 20:50 sereno Sereno -0 -4 74 1034 10 E/NE 11.1
Ieri h: 20:20 sereno Sereno 0 -4 74 1034 10 NE 11.1
Ieri h: 19:50 sereno Sereno 0 -4 74 1034 10 N 3.7
Ieri h: 19:20 sereno Sereno 0 -4 74 1033 10 NE 7.4
Ieri h: 18:50 sereno Sereno 0 -4 74 1033 10 N 5.5
Ieri h: 18:20 sereno Sereno 1 -4 69 1033 10 N 5.5
Ieri h: 17:50 sereno Sereno 2 -4 64 1033 10 N 3.7
Ieri h: 17:20 sereno Sereno 3 -3 64 1033 10 N 5.5
Ieri h: 16:50 sereno Sereno 4 -4 55 1033 10 N 5.5
Ieri h: 16:20 sereno Sereno 4 -5 51 1033 10 N 5.5
Ieri h: 15:50 sereno Sereno 4 -5 51 1034 10 E/NE 9.3
Ieri h: 15:20 sereno Sereno 4 -4 55 1034 10 NE 9.3
Ieri h: 14:50 sereno Sereno 3 -4 59 1034 10 NE 9.3
Ieri h: 14:20 sereno Sereno 3 -5 55 1034 10 E/NE 7.4
Ieri h: 13:50 sereno Sereno 2 -4 64 1034 10 NE 7.4
Ieri h: 13:20 sereno Sereno 2 -5 59 1034 10 E/NE 7.4
Ieri h: 12:50 sereno Sereno 2 -4 64 1034 10 E/NE 7.4
Ieri h: 12:20 sereno Sereno 1 -5 64 1034 10 E 7.4
Ieri h: 11:50 sereno Sereno 0 -5 68 1034 10 N 5.5
Ieri h: 11:20 sereno Sereno 0 -5 68 1034 10 N 3.7
Ieri h: 10:50 sereno Sereno 0 -5 68 1034 10 N 5.5
Ieri h: 10:20 sereno Sereno -1 -4 80 1034 10 E/NE 14.8
Ieri h: 09:50 sereno Sereno -1 -5 74 1034 10 E/NE 11.1